Terug naar catalogus

STARLINK-30278

ActiefCommunicatieVLEO
NORAD 57668·PAYLOAD·🇺🇸 United States

Gelanceerd Aug 22, 2023 vanaf Vandenberg Space Force Base

Loading…

Volgende Passages (komende 24 uur)

TLE

VersSource: CelesTrak SupGP

Epoch: Sep 15, 2026, 02:31 UTC

1 57668C 23124F   26258.10534722 -.00016178  00000+0 -47820-3 0  2587
2 57668  53.1589  44.9130 0001139  90.1983 325.5766 15.34385234    13

Volg STARLINK-30278 in realtime met AllMySat

Download on the App Store